TimeCST,TemperatureF,Dew PointF,Humidity,Sea Level PressureIn,VisibilityMPH,Wind Direction,Wind SpeedMPH,Gust SpeedMPH,PrecipitationIn,Events,Conditions,WindDirDegrees,DateUTC
12:53 AM,39.9,37.9,93,30.28,10.0,Calm,Calm,-,N/A,,Clear,0,2012-11-16 06:53:00
1:53 AM,36.0,35.1,97,30.28,8.0,Calm,Calm,-,N/A,,Clear,0,2012-11-16 07:53:00
2:53 AM,37.0,35.1,93,30.28,8.0,Calm,Calm,-,N/A,,Clear,0,2012-11-16 08:53:00
3:53 AM,37.0,35.1,93,30.27,9.0,Calm,Calm,-,N/A,,Clear,0,2012-11-16 09:53:00
4:53 AM,36.0,34.0,93,30.28,9.0,Calm,Calm,-,N/A,,Clear,0,2012-11-16 10:53:00
6:53 AM,34.0,33.1,96,30.32,8.0,Calm,Calm,-,N/A,,Clear,0,2012-11-16 12:53:00
7:53 AM,43.0,36.0,76,30.34,10.0,North,3.5,-,N/A,,Clear,10,2012-11-16 13:53:00
8:53 AM,48.0,37.9,68,30.35,10.0,Calm,Calm,-,N/A,,Clear,0,2012-11-16 14:53:00
9:53 AM,55.0,39.0,55,30.35,10.0,Variable,3.5,-,N/A,,Clear,0,2012-11-16 15:53:00
10:53 AM,59.0,39.0,48,30.33,10.0,Calm,Calm,-,N/A,,Clear,0,2012-11-16 16:53:00
11:53 AM,63.0,39.9,43,30.30,10.0,NE,4.6,-,N/A,,Clear,40,2012-11-16 17:53:00
12:53 PM,64.9,37.9,37,30.28,10.0,East,4.6,-,N/A,,Clear,80,2012-11-16 18:53:00
1:53 PM,66.0,37.0,34,30.27,10.0,Calm,Calm,-,N/A,,Clear,0,2012-11-16 19:53:00
2:53 PM,66.0,36.0,33,30.26,10.0,NNE,9.2,-,N/A,,Clear,30,2012-11-16 20:53:00
3:53 PM,64.9,34.0,32,30.27,10.0,NNE,9.2,-,N/A,,Clear,30,2012-11-16 21:53:00
4:53 PM,57.0,36.0,45,30.27,10.0,North,5.8,-,N/A,,Clear,10,2012-11-16 22:53:00
5:53 PM,51.1,39.0,63,30.29,10.0,Calm,Calm,-,N/A,,Clear,0,2012-11-16 23:53:00
6:53 PM,50.0,37.0,61,30.30,10.0,North,3.5,-,N/A,,Clear,360,2012-11-17 00:53:00
7:53 PM,46.0,36.0,68,30.31,10.0,Calm,Calm,-,N/A,,Clear,0,2012-11-17 01:53:00
8:53 PM,46.9,36.0,66,30.32,10.0,NNE,3.5,-,N/A,,Clear,20,2012-11-17 02:53:00
9:53 PM,44.1,36.0,73,30.32,10.0,North,3.5,-,N/A,,Clear,10,2012-11-17 03:53:00
10:53 PM,45.0,33.1,63,30.33,10.0,North,4.6,-,N/A,,Clear,360,2012-11-17 04:53:00
11:53 PM,41.0,33.1,73,30.33,10.0,Calm,Calm,-,N/A,,Clear,0,2012-11-17 05:53:00